Location: Grand Lay
(47.3253°N, 0.9468°E)
Time: 00:18:38
(UTC+00:00)

Helios 1A Rocket - Pass Details

Date: 18 January 2026
Orbit: 425 x 435 km, 98.3° (Epoch: 16 February)

Event Time Altitude Azimuth Distance (km) Brightness Sun altitude
Rises 05:27:02 0° 153° (SSE) 2,440 6.6 -21.5°
Reaches altitude 10° 05:29:05 10° 148° (SSE) 1,573 5.7 -21.2°
Maximum altitude 05:32:21 51° 72° (ENE) 576 3.2 -20.6°
Enters shadow 05:34:19 21° 4° (N) 1,052 4.2 -20.3°
